Great Falls, MT

12:07 AM MDT on July 30, 2016 (GMT -0600)
Great Falls International

Weather History for KGTF - February, 2014

Change the Weather History Date:

Tuesday, February 18, 2014

  Actual Average Record
Temperature  
Mean Temperature 33 °F 28 °F  
Max Temperature 44 °F 39 °F 64 °F (1930)
Min Temperature 22 °F 16 °F -35 °F (1936)
Degree Days  
Heating Degree Days 32 37  
Month to date heating degree days 895 691  
Since 1 July heating degree days 5146 5142  
Cooling Degree Days 0 0  
Month to date cooling degree days 0 0  
Year to date cooling degree days 0 0  
Moisture  
Dew Point 20 °F    
Average Humidity 60    
Maximum Humidity 85    
Minimum Humidity 34    
Precipitation  
Precipitation 0.00 in 0.01 in 0.27 in (1949)
Month to date precipitation 0.38 0.28  
Year to date precipitation 1.68 0.79  
Snow  
Snow 0.00 in 0.30 in 3.50 in (1949)
Month to date snowfall 5.7 5.1  
Since 1 July snowfall 47.7 36.9  
Snow Depth T in    
Sea Level Pressure  
Sea Level Pressure 29.79 in    
Wind  
Wind Speed 16 mph (SW)    
Max Wind Speed 36 mph    
Max Gust Speed 44 mph    
Visibility 10 miles    
Events      
T = Trace of Precipitation, MM = Missing Value Source: NWS Daily Summary

Daily Weather History Graph

Daily Weather History Graph

Search for Another Location

Airport or City:

Trip Planner

Search our weather history database for the weather conditions in past years. The results will help you decide how hot, cold, wet, or windy it might be!

Date:

Astronomy

Feb. 18, 2014 Rise Set
Actual Time 7:25 AM MST 5:53 PM MST
Civil Twilight 6:54 AM MST 6:25 PM MST
Nautical Twilight 6:18 AM MST 7:01 PM MST
Astronomical Twilight 5:42 AM MST 7:36 PM MST
Moon 10:10 PM MST (2/18) 8:42 AM MST (2/18)
Length of Visible Light 11h 31m
Length of Day
10h 28m
Waning Gibbous, 87% of the Moon is Illuminated
Feb 18
Waning Gibbous
Feb 22
Last Quarter
Mar 1
New
Mar 8
First Quarter
Mar 16
Full

Hourly Weather History & Observations

Time (MST) Temp. Windchill Dew Point Humidity Pressure Visibility Wind Dir Wind Speed Gust Speed Precip Events Conditions
12:53 AM 30.9 °F 21.7 °F 23.0 °F 72% 29.67 in 10.0 mi West 11.5 mph - N/A   Clear
1:53 AM 28.0 °F 18.6 °F 19.9 °F 72% 29.70 in 10.0 mi WSW 10.4 mph - N/A   Clear
2:53 AM 26.1 °F 16.8 °F 19.9 °F 78% 29.77 in 10.0 mi NW 9.2 mph - N/A   Clear
3:53 AM 21.9 °F 12.5 °F 18.0 °F 85% 29.80 in 10.0 mi SW 8.1 mph - N/A   Clear
4:53 AM 28.9 °F 18.2 °F 21.0 °F 72% 29.82 in 10.0 mi WSW 13.8 mph - N/A   Clear
5:53 AM 25.0 °F 14.8 °F 19.0 °F 78% 29.88 in 10.0 mi SW 10.4 mph - N/A   Clear
6:53 AM 28.9 °F 16.1 °F 21.0 °F 72% 29.90 in 10.0 mi SW 19.6 mph - N/A   Clear
7:53 AM 28.9 °F 17.3 °F 21.9 °F 75% 29.91 in 10.0 mi SW 16.1 mph - N/A   Clear
8:53 AM 34.0 °F 22.1 °F 19.9 °F 56% 29.91 in 10.0 mi SW 21.9 mph 27.6 mph N/A   Clear
9:53 AM 37.0 °F 25.4 °F 17.1 °F 44% 29.91 in 10.0 mi SW 25.3 mph 32.2 mph N/A   Clear
10:53 AM 39.9 °F 28.0 °F 15.1 °F 36% 29.91 in 10.0 mi WSW 32.2 mph 43.7 mph N/A   Clear
11:53 AM 41.0 °F 31.6 °F 16.0 °F 36% 29.95 in 10.0 mi SW 20.7 mph 27.6 mph N/A   Clear
12:53 PM 39.9 °F 29.7 °F 16.0 °F 38% 29.92 in 10.0 mi SW 23.0 mph 33.4 mph N/A   Clear
1:53 PM 39.9 °F 30.0 °F 19.0 °F 43% 29.91 in 10.0 mi SW 21.9 mph 26.5 mph N/A   Clear
2:53 PM 42.1 °F 33.1 °F 19.0 °F 40% 29.87 in 10.0 mi SW 20.7 mph 27.6 mph N/A   Clear
3:53 PM 43.0 °F 34.5 °F 19.0 °F 38% 29.86 in 10.0 mi WSW 19.6 mph - N/A   Clear
4:53 PM 42.1 °F 33.6 °F 19.0 °F 40% 29.82 in 10.0 mi SW 18.4 mph - N/A   Partly Cloudy
5:53 PM 37.0 °F 31.6 °F 19.0 °F 48% 29.79 in 10.0 mi SW 6.9 mph - N/A   Clear
6:53 PM 34.0 °F 28.0 °F 21.0 °F 59% 29.74 in 10.0 mi SSW 6.9 mph - N/A   Clear
7:53 PM 35.1 °F 27.9 °F 21.0 °F 57% 29.67 in 10.0 mi SSW 9.2 mph - N/A   Clear
8:53 PM 41.0 °F 31.6 °F 19.0 °F 41% 29.59 in 10.0 mi SW 20.7 mph 27.6 mph N/A   Clear
9:53 PM 37.9 °F 30.5 °F 19.9 °F 48% 29.56 in 10.0 mi SSW 11.5 mph - N/A   Clear
10:53 PM 37.9 °F 29.6 °F 21.9 °F 53% 29.51 in 10.0 mi SSW 13.8 mph - N/A   Clear
11:53 PM 39.0 °F 31.8 °F 23.0 °F 53% 29.48 in 10.0 mi SW 11.5 mph - N/A   Clear